Location: Calvera
(42.3882°N, 0.6137°E)
Time: 19:07:02
(UTC+00:00)

Cosmos 44 Rocket - Pass Details

Date: 28 October 2020
Orbit: 642 x 748 km, 65.1° (Epoch: 23 November)

Event Time Altitude Azimuth Distance (km) Brightness Sun altitude
Exits shadow 04:53:07 29° 248° (WSW) 1,346 4.3 -17.8°
Maximum altitude 04:53:07 29° 248° (WSW) 1,346 4.3 -17.7°
Drops below altitude 10° 04:57:32 10° 189° (S) 2,256 5.9 -16.9°
Sets 05:00:10 0° 178° (S) 3,175 6.8 -16.5°
